Location: WHS+Essen
(51.3947°N, 6.9794°E)
Time: 00:36:45
(UTC+02:00)

ISS - Pass Details

Date: 26 May 2019
Orbit: 408 x 418 km, 51.6° (Epoch: 18 June)

Event Time Altitude Azimuth Distance (km) Brightness Sun altitude
Rises 00:58:03 0° 284° (WNW) 2,363 0.4 -17.3°
Reaches altitude 10° 01:00:13 10° 276° (W) 1,499 -0.8 -17.3°
Enters shadow 01:02:48 34° 232° (SW) 712 -2.9 -17.3°
